Overview Statistics Trail Chart Weather Telemetry Raw packets
 

This is the latest recevied weather packets stored in our database for station/object W4MLN-3. If no packets are shown the sender has not sent any weather packets the latest 10 day(s).

<< 66 67 68 69 70 71 72 >>
Time Temp. Humidity Pressure Rain* Wind** Luminosity Snow
1788027328 25.56° C 67% 1025.4 hPa 0 mm - - -
1788027003 26.11° C 65% 1025.4 hPa 0 mm - - -
1788026703 26.67° C 67% 1025.5 hPa 0 mm - - -
1788026425 26.67° C 62% 1025.6 hPa 0 mm - - -
1788026124 26.67° C 65% 1025.6 hPa 0 mm - - -
1788025803 26.67° C 64% 1025.7 hPa 0 mm - - -
1788025503 26.67° C 66% 1025.7 hPa 0 mm - - -
1788025203 26.67° C 65% 1025.6 hPa 0 mm - - -
1788024903 26.67° C 66% 1025.7 hPa 0 mm - - -
1788024603 26.11° C 68% 1025.8 hPa 0 mm - - -
1788024324 26.11° C 67% 1025.8 hPa 0 mm - - -
1788024003 26.11° C 67% 1025.8 hPa 0 mm - - -
1788023703 26.11° C 69% 1025.8 hPa 0 mm - - -
1788023424 25.56° C 71% 1025.8 hPa 0 mm - - -
1788023103 25.56° C 69% 1025.9 hPa 0 mm - - -
1788022803 25.56° C 71% 1026 hPa 0 mm - - -
1788022503 25° C 73% 1026 hPa 0 mm - - -
1788022203 25° C 75% 1026 hPa 0 mm - - -
1788021924 24.44° C 75% 1025.9 hPa 0 mm - - -
1788021603 23.89° C 74% 1026 hPa 0 mm - - -
1788021324 23.89° C 76% 1025.9 hPa 0 mm - - -
1788021024 23.89° C 77% 1026 hPa 0 mm - - -
1788020724 23.89° C 77% 1025.9 hPa 0 mm - - -
1788020403 23.33° C 78% 1025.8 hPa 0 mm - - -
1788020103 23.33° C 80% 1025.8 hPa 0 mm - - -

* Rain latest hour (hover to see other rain measurements)
** Current wind speed in m/s (hover to see current wind gust speed)